Weather History for Glendive, MT

Change the Weather History Date:

Friday, November 9, 2012

  Actual Average Record
Temperature  
Mean Temperature 26 °F -  
Max Temperature 30 °F 41 °F 68 °F (2001)
Min Temperature 19 °F 20 °F 6 °F (2000)
Degree Days  
Heating Degree Days 40    
Moisture  
Dew Point 24 °F    
Average Humidity 87    
Maximum Humidity 93    
Minimum Humidity 80    
Precipitation  
Precipitation 0.00 in - - ()
Sea Level Pressure  
Sea Level Pressure 29.85 in    
Wind  
Wind Speed 19 mph (East)    
Max Wind Speed 24 mph    
Max Gust Speed 31 mph    
Visibility 8 miles    
Events      
Averages and records for this station are not official NWS values.
T = Trace of Precipitation, MM = Missing Value Source: NWS Daily Summary

Daily Weather History Graph

Daily Weather History Graph

Search for Another Location

Airport:

Trip Planner

Search our weather history database for the weather conditions in past years. The results will help you decide how hot, cold, wet, or windy it might be!

Date:

Astronomy

Nov. 09, 2012 Rise Set
Actual Time 6:54 AM MST 4:30 PM MST
Civil Twilight 6:22 AM MST 5:03 PM MST
Nautical Twilight 5:45 AM MST 5:39 PM MST
Astronomical Twilight 5:09 AM MST 6:15 PM MST
Moon 1:38 AM MST (11/9) 2:00 PM MST (11/9)
Length of Visible Light 10h 41m
Length of Day
9h 35m
Waning Crescent, 22% of the Moon is Illuminated
Nov 9
Waning Crescent
Nov 13
New
Nov 20
First Quarter
Nov 28
Full
Dec 6
Last Quarter

Hourly Weather History & Observations

Time (MST) Temp. Windchill Dew Point Humidity Pressure Visibility Wind Dir Wind Speed Gust Speed Precip Events Conditions
12:15 AM 30.2 °F 16.8 °F 26.6 °F 86% 29.96 in 10.0 mi East 23.0 mph 28.8 mph N/A   Overcast
12:35 AM 30.2 °F 17.4 °F 26.6 °F 86% 29.95 in 10.0 mi East 20.7 mph 25.3 mph N/A   Overcast
12:55 AM 30.2 °F 16.5 °F 26.6 °F 86% 29.95 in 10.0 mi East 24.2 mph 29.9 mph N/A   Overcast
1:15 AM 30.2 °F 17.4 °F 26.6 °F 86% 29.94 in 10.0 mi East 20.7 mph - N/A   Overcast
1:35 AM 30.2 °F 17.1 °F 26.6 °F 86% 29.94 in 10.0 mi East 21.9 mph 26.5 mph N/A   Overcast
1:55 AM 30.2 °F 16.8 °F 26.6 °F 86% 29.94 in 10.0 mi East 23.0 mph 26.5 mph N/A   Overcast
2:15 AM 30.2 °F 18.5 °F 26.6 °F 86% 29.93 in 10.0 mi East 17.3 mph 28.8 mph N/A   Overcast
2:35 AM 30.2 °F 17.1 °F 26.6 °F 86% 29.94 in 10.0 mi East 21.9 mph 27.6 mph N/A   Overcast
3:15 AM 28.4 °F 15.1 °F 24.8 °F 86% 29.91 in 9.0 mi East 20.7 mph 27.6 mph N/A   Overcast
3:35 AM 28.4 °F 14.7 °F 24.8 °F 86% 29.90 in 8.0 mi East 21.9 mph 25.3 mph N/A   Overcast
3:55 AM 28.4 °F 14.4 °F 26.6 °F 93% 29.90 in 10.0 mi East 23.0 mph 31.1 mph N/A   Overcast
4:15 AM 28.4 °F 14.4 °F 24.8 °F 86% 29.90 in 10.0 mi East 23.0 mph 29.9 mph N/A   Overcast
4:35 AM 28.4 °F 14.1 °F 24.8 °F 86% 29.90 in 10.0 mi East 24.2 mph 29.9 mph N/A   Overcast
4:55 AM 28.4 °F 15.4 °F 24.8 °F 86% 29.89 in 10.0 mi East 19.6 mph - N/A   Overcast
5:15 AM 28.4 °F 14.4 °F 24.8 °F 86% 29.88 in 10.0 mi East 23.0 mph 29.9 mph N/A   Overcast
5:35 AM 28.4 °F 15.8 °F 24.8 °F 86% 29.88 in 10.0 mi East 18.4 mph 23.0 mph N/A   Overcast
5:55 AM 28.4 °F 15.4 °F 24.8 °F 86% 29.88 in 10.0 mi East 19.6 mph 29.9 mph N/A   Overcast
6:15 AM 26.6 °F 13.1 °F 24.8 °F 93% 29.88 in 10.0 mi East 19.6 mph 26.5 mph N/A   Overcast
6:35 AM 26.6 °F 12.0 °F 24.8 °F 93% 29.88 in 10.0 mi East 23.0 mph 26.5 mph N/A   Overcast
6:55 AM 26.6 °F 12.7 °F 23.0 °F 86% 29.88 in 10.0 mi East 20.7 mph 29.9 mph N/A   Overcast
7:15 AM 26.6 °F 12.0 °F 23.0 °F 86% 29.87 in 10.0 mi East 23.0 mph 29.9 mph N/A   Overcast
7:35 AM 26.6 °F 13.1 °F 23.0 °F 86% 29.87 in 10.0 mi East 19.6 mph 27.6 mph N/A   Overcast
7:55 AM 26.6 °F 12.7 °F 21.2 °F 80% 29.87 in 10.0 mi East 20.7 mph 27.6 mph N/A   Overcast
8:15 AM 26.6 °F 13.1 °F 23.0 °F 86% 29.87 in 10.0 mi East 19.6 mph 25.3 mph N/A   Overcast
8:35 AM 26.6 °F 13.1 °F 23.0 °F 86% 29.86 in 10.0 mi East 19.6 mph 26.5 mph N/A   Overcast
8:55 AM 26.6 °F 14.3 °F 23.0 °F 86% 29.87 in 10.0 mi East 16.1 mph 24.2 mph N/A   Overcast
9:15 AM 26.6 °F 14.7 °F 23.0 °F 86% 29.86 in 10.0 mi East 15.0 mph 24.2 mph N/A   Overcast
9:35 AM 26.6 °F 13.8 °F 23.0 °F 86% 29.86 in 10.0 mi East 17.3 mph - N/A   Overcast
9:55 AM 26.6 °F 13.4 °F 23.0 °F 86% 29.86 in 10.0 mi East 18.4 mph - N/A   Overcast
10:15 AM 26.6 °F 14.7 °F 24.8 °F 93% 29.87 in 10.0 mi East 15.0 mph 24.2 mph N/A   Overcast
10:35 AM 28.4 °F 15.8 °F 23.0 °F 80% 29.86 in 10.0 mi East 18.4 mph - N/A   Overcast
10:55 AM 28.4 °F 16.6 °F 24.8 °F 86% 29.87 in 10.0 mi East 16.1 mph - N/A   Overcast
11:15 AM 28.4 °F 16.2 °F 24.8 °F 86% 29.86 in 10.0 mi East 17.3 mph - N/A   Overcast
11:35 AM 28.4 °F 15.8 °F 24.8 °F 86% 29.85 in 10.0 mi East 18.4 mph 23.0 mph N/A   Overcast
11:55 AM 28.4 °F 16.6 °F 24.8 °F 86% 29.84 in 10.0 mi East 16.1 mph 19.6 mph N/A   Overcast
12:15 PM 28.4 °F 17.0 °F 24.8 °F 86% 29.83 in 10.0 mi East 15.0 mph 21.9 mph N/A   Overcast
12:35 PM 28.4 °F 16.6 °F 24.8 °F 86% 29.82 in 10.0 mi East 16.1 mph 19.6 mph N/A   Overcast
12:55 PM 28.4 °F 18.0 °F 24.8 °F 86% 29.82 in 8.0 mi East 12.7 mph 23.0 mph N/A   Overcast
1:15 PM 28.4 °F 16.6 °F 24.8 °F 86% 29.82 in 3.0 mi ENE 16.1 mph - N/A   Overcast
1:35 PM 28.4 °F 17.0 °F 26.6 °F 93% 29.81 in 3.0 mi ENE 15.0 mph - N/A   Overcast
1:55 PM 28.4 °F 17.0 °F 26.6 °F 93% 29.81 in 4.0 mi East 15.0 mph - N/A   Overcast
2:15 PM 28.4 °F 16.6 °F 24.8 °F 86% 29.82 in 7.0 mi East 16.1 mph - N/A   Overcast
2:35 PM 28.4 °F 18.0 °F 24.8 °F 86% 29.82 in 9.0 mi East 12.7 mph - N/A   Overcast
2:55 PM 28.4 °F 16.6 °F 24.8 °F 86% 29.81 in 7.0 mi East 16.1 mph 20.7 mph N/A   Overcast
3:15 PM 28.4 °F 17.5 °F 24.8 °F 86% 29.80 in 3.0 mi ENE 13.8 mph - N/A   Overcast
3:55 PM 28.4 °F 18.0 °F 24.8 °F 86% 29.81 in 5.0 mi East 12.7 mph 18.4 mph N/A   Overcast
4:15 PM 28.4 °F 17.0 °F 24.8 °F 86% 29.81 in 3.0 mi East 15.0 mph - N/A   Overcast
4:35 PM 26.6 °F 16.2 °F 24.8 °F 93% 29.81 in 3.0 mi ENE 11.5 mph - N/A   Overcast
4:56 PM 26.6 °F 15.2 °F 24.8 °F 93% 29.80 in 4.0 mi ENE 13.8 mph - N/A   Overcast
5:15 PM 26.6 °F 14.7 °F 24.8 °F 93% 29.80 in 2.0 mi ENE 15.0 mph - N/A   Overcast
5:35 PM 26.6 °F 14.7 °F 24.8 °F 93% 29.79 in 1.5 mi ENE 15.0 mph - N/A   Overcast
7:55 PM - - - N/A% - - North - - N/A   Unknown
8:15 PM 24.8 °F 12.4 °F 21.2 °F 86% 29.81 in 3.0 mi NE 15.0 mph - N/A   Overcast
8:35 PM 24.8 °F 12.4 °F 21.2 °F 86% 29.81 in 8.0 mi NE 15.0 mph - N/A   Overcast
8:55 PM 24.8 °F 11.5 °F 21.2 °F 86% 29.81 in 10.0 mi NE 17.3 mph - N/A   Overcast
9:15 PM 24.8 °F 11.1 °F 21.2 °F 86% 29.80 in 10.0 mi NE 18.4 mph - N/A   Overcast
9:35 PM 24.8 °F 11.9 °F 21.2 °F 86% 29.80 in 10.0 mi NE 16.1 mph - N/A   Overcast
9:55 PM 23.0 °F 11.1 °F 19.4 °F 86% 29.81 in 4.0 mi NE 12.7 mph - N/A   Overcast
10:15 PM 21.2 °F 8.9 °F 19.4 °F 93% 29.81 in 1.0 mi NE 12.7 mph - N/A   Overcast
10:35 PM 21.2 °F 10.1 °F 17.6 °F 86% 29.82 in 1.2 mi NE 10.4 mph - N/A   Overcast
10:55 PM 21.2 °F 10.1 °F 17.6 °F 86% 29.83 in 1.0 mi NE 10.4 mph - N/A   Overcast
11:15 PM 21.2 °F 7.8 °F 17.6 °F 86% 29.80 in 0.8 mi NNE 15.0 mph - N/A   Overcast
11:35 PM 21.2 °F 7.3 °F 17.6 °F 86% 29.78 in 0.8 mi NNE 16.1 mph - N/A   Overcast
11:56 PM 19.4 °F 5.5 °F 17.6 °F 93% 29.77 in 0.8 mi NNE 15.0 mph 19.6 mph N/A   Overcast